Content
SEND FEEDBACK

Daily
Averages
Monthly
Summary
United States of America

STANLEY, NORTH DAKOTA


Home > North America > United States > North Dakota
Elevation: 2295 feet     Latitude: 48 21N     Longitude: 102 25W

WEATHER
 
SELECT A DAY
Number of Records: 82,832;   Date Range: 12/7/10 - 9/15/14
 
SHARE

PRINT THIS DATA

[ ← Previous Day ]
WEATHER ALMANAC - MARCH 24, 2014
[ Next Day → ]
[ °C ]   °F
Weather ElementAverageHighLow
Temperature16.8 °F24.8 °F (11:55 am)8.6 °F (10:15 pm)
Dewpoint7 °F14 °F (12:35 am)1.4 °F (8:35 pm)
Humidity67.4 %93 % (12:35 am)43 % (12:35 pm)
Barometer30.27 in30.32 in (9:35 pm)30.25 in (12:15 pm)
Wind Speed15.3 mph29.9 mph (5:35 pm)
Wind Gust43.7 mph (5:35 pm)
Weather ElementAverage
Visibility10 mi
Wind DirectionNW (314.6 °)

Weather ElementTotal
Precipitation---
Heating Degree Days48.3 (Base 65)
Averaged from 71 records on March 24, 2014
WEATHER CONDITIONS BREAKOUT
WIND DIRECTION BREAKOUT
WEATHER BY HOUR - MARCH 24, 2014
[ °C ]   °F
Local TimeTemperatureDewpointHumidityBarometerVisibilityWind DirectionWind SpeedGust SpeedPrecipitationEventsConditions
12:35 AM15.8 °F14.0 °F93 %30.26 in10.0 miNorth (360°)6.9 mphOvercast
12:55 AM17.6 °F14.0 °F86 %30.26 in10.0 miNorth (350°)6.9 mphOvercast
1:15 AM15.8 °F14.0 °F93 %30.26 in10.0 miNorth (360°)9.2 mphOvercast
1:35 AM15.8 °F14.0 °F93 %30.26 in10.0 miNNW (340°)5.8 mphOvercast
1:55 AM15.8 °F14.0 °F93 %30.27 in10.0 miNNW (330°)6.9 mphOvercast
2:15 AM15.8 °F10.4 °F79 %30.27 in10.0 miNNW (330°)8.1 mphOvercast
2:35 AM15.8 °F8.6 °F73 %30.27 in10.0 miNNW (330°)6.9 mphOvercast
2:55 AM15.8 °F5.0 °F62 %30.27 in10.0 miNW (320°)9.2 mphOvercast
3:15 AM15.8 °F5.0 °F62 %30.27 in10.0 miNW (320°)8.1 mphOvercast
3:35 AM15.8 °F6.8 °F68 %30.27 in10.0 miWNW (300°)6.9 mphOvercast
3:55 AM15.8 °F6.8 °F68 %30.26 in10.0 miNW (320°)11.5 mph16.1 mphOvercast
4:15 AM15.8 °F5.0 °F62 %30.26 in10.0 miNW (310°)11.5 mphOvercast
4:35 AM15.8 °F5.0 °F62 %30.27 in10.0 miNW (310°)10.4 mphOvercast
4:55 AM15.8 °F6.8 °F68 %30.27 in10.0 miNW (310°)9.2 mphOvercast
5:15 AM14.0 °F6.8 °F73 %30.27 in10.0 miWNW (300°)6.9 mphOvercast
5:35 AM14.0 °F6.8 °F73 %30.26 in10.0 miWNW (290°)5.8 mphOvercast
5:55 AM14.0 °F8.6 °F79 %30.26 in10.0 miWNW (290°)5.8 mphOvercast
6:15 AM14.0 °F6.8 °F73 %30.26 in10.0 miWest (270°)8.1 mphOvercast
6:35 AM10.4 °F6.8 °F85 %30.26 in10.0 miWest (270°)8.1 mphOvercast
6:55 AM10.4 °F8.6 °F92 %30.26 in10.0 miWest (280°)5.8 mphOvercast
7:15 AM10.4 °F6.8 °F85 %30.26 in10.0 miWest (270°)5.8 mphOvercast
7:35 AM10.4 °F6.8 °F85 %30.26 in10.0 miWest (270°)6.9 mphScattered Clouds
7:55 AM10.4 °F6.8 °F85 %30.26 in10.0 miWest (280°)5.8 mphClear
8:15 AM12.2 °F10.4 °F92 %30.26 in10.0 miWest (280°)6.9 mphScattered Clouds
8:35 AM14.0 °F10.4 °F86 %30.26 in10.0 miWest (280°)9.2 mphMostly Cloudy
8:55 AM14.0 °F12.2 °F93 %30.26 in10.0 miWest (280°)9.2 mphMostly Cloudy
9:15 AM17.6 °F14.0 °F86 %30.26 in10.0 miWNW (300°)12.7 mph18.4 mphPartly Cloudy
9:35 AM17.6 °F14.0 °F86 %30.27 in10.0 miNW (310°)13.8 mph24.2 mphClear
9:55 AM19.4 °F10.4 °F68 %30.27 in10.0 miNW (310°)16.1 mph23.0 mphClear
10:15 AM21.2 °F8.6 °F58 %30.27 in10.0 miWNW (300°)15.0 mph28.8 mphClear
10:35 AM23.0 °F8.6 °F54 %30.27 in10.0 miNW (310°)17.3 mph27.6 mphClear
10:55 AM23.0 °F8.6 °F54 %30.27 in10.0 miNW (320°)17.3 mph26.5 mphScattered Clouds
11:15 AM23.0 °F8.6 °F54 %30.27 in10.0 miNW (310°)19.6 mph28.8 mphPartly Cloudy
11:35 AM23.0 °F5.0 °F46 %30.26 in10.0 miNW (320°)19.6 mph28.8 mphPartly Cloudy
11:55 AM24.8 °F6.8 °F46 %30.26 in10.0 miNW (320°)19.6 mph29.9 mphPartly Cloudy
12:15 PM24.8 °F6.8 °F46 %30.25 in10.0 miNW (310°)21.9 mph28.8 mphScattered Clouds
12:35 PM24.8 °F5.0 °F43 %30.25 in10.0 miNW (320°)21.9 mph31.1 mphScattered Clouds
12:55 PM24.8 °F5.0 °F43 %30.26 in10.0 miWNW (300°)21.9 mph32.2 mphScattered Clouds
1:15 PM23.0 °F6.8 °F50 %30.25 in10.0 miNW (320°)20.7 mph31.1 mphScattered Clouds
1:35 PM24.8 °F8.6 °F50 %30.25 in10.0 miNW (320°)24.2 mph33.4 mphScattered Clouds
1:55 PM24.8 °F10.4 °F54 %30.26 in10.0 miNNW (340°)20.7 mph32.2 mphScattered Clouds
2:15 PM24.8 °F8.6 °F50 %30.26 in10.0 miNW (320°)23.0 mph33.4 mphScattered Clouds
2:35 PM23.0 °F8.6 °F54 %30.26 in10.0 miNW (320°)20.7 mph31.1 mphMostly Cloudy
2:55 PM23.0 °F8.6 °F54 %30.26 in10.0 miNW (310°)24.2 mph31.1 mphMostly Cloudy
3:15 PM23.0 °F6.8 °F50 %30.26 in10.0 miNW (320°)25.3 mph38.0 mphMostly Cloudy
3:35 PM23.0 °F6.8 °F50 %30.27 in10.0 miNW (320°)24.2 mph35.7 mphPartly Cloudy
3:55 PM21.2 °F8.6 °F58 %30.26 in10.0 miNW (320°)21.9 mph35.7 mphScattered Clouds
4:15 PM21.2 °F6.8 °F54 %30.26 in10.0 miNW (320°)27.6 mph36.8 mphScattered Clouds
4:35 PM19.4 °F6.8 °F58 %30.27 in10.0 miNW (320°)23.0 mph38.0 mphMostly Cloudy
4:55 PM21.2 °F5.0 °F50 %30.27 in10.0 miNW (310°)28.8 mph40.3 mphScattered Clouds
5:15 PM19.4 °F3.2 °F49 %30.27 in10.0 miNW (320°)27.6 mph42.6 mphPartly Cloudy
5:35 PM19.4 °F3.2 °F49 %30.27 in10.0 miNW (320°)29.9 mph43.7 mphPartly Cloudy
5:55 PM19.4 °F3.2 °F49 %30.27 in10.0 miNNW (340°)28.8 mph39.1 mphScattered Clouds
6:15 PM17.6 °F3.2 °F53 %30.28 in10.0 miNW (320°)27.6 mph38.0 mphScattered Clouds
6:35 PM19.4 °F3.2 °F49 %30.29 in10.0 miNW (320°)25.3 mph33.4 mphMostly Cloudy
6:55 PM17.6 °F3.2 °F53 %30.29 in10.0 miNW (320°)21.9 mph33.4 mphMostly Cloudy
7:15 PM15.8 °F3.2 °F58 %30.29 in10.0 miNW (320°)21.9 mph34.5 mphScattered Clouds
7:35 PM15.8 °F3.2 °F58 %30.29 in10.0 miNW (320°)21.9 mph32.2 mphPartly Cloudy
7:55 PM14.0 °F3.2 °F62 %30.29 in10.0 miNNW (330°)23.0 mph34.5 mphClear
8:15 PM14.0 °F3.2 °F62 %30.30 in10.0 miNNW (330°)18.4 mph31.1 mphClear
8:35 PM12.2 °F1.4 °F62 %30.30 in10.0 miNNW (330°)19.6 mph25.3 mphClear
8:55 PM12.2 °F1.4 °F62 %30.31 in10.0 miNNW (330°)19.6 mph31.1 mphClear
9:15 PM10.4 °F3.2 °F73 %30.31 in10.0 miNNW (330°)16.1 mph26.5 mphClear
9:35 PM10.4 °F5.0 °F79 %30.32 in10.0 miNNW (330°)13.8 mph21.9 mphClear
9:55 PM10.4 °F5.0 °F79 %30.32 in10.0 miNNW (330°)12.7 mph19.6 mphClear
10:15 PM8.6 °F5.0 °F85 %30.32 in10.0 miNNW (330°)11.5 mphClear
10:35 PM8.6 °F5.0 °F85 %30.32 in10.0 miNW (320°)10.4 mphClear
10:55 PM8.6 °F5.0 °F85 %30.32 in10.0 miNW (320°)10.4 mph17.3 mphClear
11:15 PM8.6 °F5.0 °F85 %30.32 in10.0 miNW (320°)8.1 mphClear
11:35 PM8.6 °F5.0 °F85 %30.32 in10.0 miNW (320°)8.1 mphClear
11:55 PM8.6 °F5.0 °F85 %30.31 in10.0 miNW (320°)6.9 mphClear
Hourly data recorded from K08D, located miles away from Stanley, North Dakota







STORIES FROM OUR PARTNERS